Location: ?????????
(54.7630°N, 39.4991°E)
Time: 11:35:05
(UTC+00:00)

ATLAS 5 CENTAUR R/B - Pass Details

Date: 14 April 2026
Orbit: 361 x 1064 km, 63.3° (Epoch: 10 May)

Event Time Altitude Azimuth Distance (km) Brightness Sun altitude
Rises 19:50:33 0° 307° (NW) 2,435 5.6 -22.8°
Reaches altitude 10° 19:52:36 10° 318° (NW) 1,645 4.7 -22.9°
Maximum altitude 19:55:59 35° 26° (NNE) 882 2.6 -23.1°
Enters shadow 19:57:30 26° 68° (ENE) 1,128 2.8 -23.2°
